Location: Izdebno
(52.6670°N, 16.2170°E)
Time: 09:57:12
(UTC+01:00)

Transit 2A - Pass Details

Date: 01 February 2023
Orbit: 591 x 964 km, 66.7° (Epoch: 21 March)

Event Time Altitude Azimuth Distance (km) Brightness Sun altitude
Rises 23:46:42 0° 316° (NW) 3,362 - -54.0°
Reaches altitude 10° 23:49:20 10° 326° (NNW) 2,486 - -54.1°
Maximum altitude 23:54:32 33° 30° (NNE) 1,481 - -54.2°
Drops below altitude 10° 00:00:06 10° 93° (E) 2,658 - -54.3°
Sets 00:02:59 0° 103° (ESE) 3,628 - -54.3°
